Location: Marne
(34.0056°N, 117.9064°W)
Time: 14:38:39
(UTC+00:00)

Cosmos 2227 Rocket - Pass Details

Date: 18 January 2020
Orbit: 841 x 843 km, 71.0° (Epoch: 22 February)

Event Time Altitude Azimuth Distance (km) Brightness Sun altitude
Rises 04:02:12 0° 237° (WSW) 3,386 6.1 -35.9°
Reaches altitude 10° 04:05:13 10° 253° (WSW) 2,454 5.3 -36.5°
Maximum altitude 04:09:26 21° 301° (WNW) 1,791 4.3 -37.4°
Enters shadow 04:10:34 20° 318° (NW) 1,848 4.2 -37.6°
